Jakarta/Halim Perdanakusuma International Airport

Airport
ICAO code: 
WIHH
IATA Code: 
HLP
Summary
ICAO Region: 
APAC
Territory: 
Location: 
East Jakarta, Jakarta
Serving: 
Jakarta
Elevation: 
82 ft
Coordinates: 
Aerial View: 
6° 16' 2.575" S, 106° 53' 24.279" E
Metar
Observation
WIHH 200200Z 25007KT 6000 SCT018 26/23 Q1011 RMK RA TO W
Station
HALIM PERDANAKUS
Date/Time
2022-01-20 02:00:00
Wind direction
250°
Wind speed
07 kts
Lowest cloud amount
scattered clouds
Temperature
26°C
Dew point
23°C
Humidity
83%
QNH
1011 hPa
Weather condition
n/a

Airport serving Jakarta.

Climatology

Tropical Savanna climate (Köppen climate classification Aw) - monthly mean temperature above 18°C in every month of the year and a pronounced dry season.

Runways

Designator Length Width Surface Rops
6/24 3000 45 ASP Yes/Yes
Airport map: 
Aerial View: 

Accidents and Serious Incidents at or in the vicinity of WIHH

SKYbrary Partners:

Safety knowledge contributed by: